Location: Lafig�re
(44.4503°N, 4.0357°E)
Time: 15:48:01
(UTC+00:00)

Resurs 01 Rocket - Pass Details

Date: 24 September 2020
Orbit: 633 x 645 km, 98.0° (Epoch: 25 October)

Event Time Altitude Azimuth Distance (km) Brightness Sun altitude
Exits shadow 20:03:26 40° 14° (NNE) 960 2.5 -26.1°
Drops below altitude 10° 20:06:26 10° 354° (N) 2,049 4.6 -26.6°
Sets 20:08:40 0° 351° (N) 2,962 5.5 -26.9°
